$Date,$Time,DM0201B,DM0203B,DM0205B,DM0207B,DM0209B
09/09/98,00:00:01,23,124,-30,48,981
09/09/98,00:05:01,12,101,-30,48,981
09/09/98,00:10:01,11,101,-30,48,981
09/09/98,00:15:01,20,16,-30,46,981
09/09/98,00:20:01,20,16,-30,46,981
09/09/98,00:25:01,33,27,-30,46,981
09/09/98,00:30:01,31,17,-30,46,981
09/09/98,00:35:01,31,17,-30,46,981
09/09/98,00:40:01,21,17,-30,46,981
09/09/98,00:45:01,21,17,-30,46,981
09/09/98,00:50:01,26,17,-30,46,981
09/09/98,00:55:01,26,17,-30,48,981
09/09/98,01:00:01,46,17,-30,48,981
09/09/98,01:05:01,35,7,-30,48,981
09/09/98,01:10:01,49,7,-30,48,981
09/09/98,01:15:01,32,7,-30,48,981
09/09/98,01:20:01,32,7,-30,48,981
09/09/98,01:25:01,33,7,-30,48,981
09/09/98,01:30:01,,,,,
09/09/98,01:35:01,,,,,
09/09/98,01:40:01,,,,,
09/09/98,01:45:01,,,,,
09/09/98,01:50:01,,,,,
09/09/98,01:55:01,,,,,
09/09/98,02:00:01,,,,,
09/09/98,02:05:01,,,,,
09/09/98,02:10:01,,,,,
09/09/98,02:15:01,,,,,
09/09/98,02:20:01,,,,,
09/09/98,02:25:01,,,,,
09/09/98,02:30:01,,,,,
09/09/98,02:35:01,,,,,
09/09/98,02:40:01,,,,,
09/09/98,02:45:01,,,,,
09/09/98,02:50:01,,,,,
09/09/98,02:55:01,,,,,
09/09/98,03:00:01,,,,,
09/09/98,03:05:01,66,186,-30,29,979
09/09/98,03:10:01,55,186,-30,29,979
09/09/98,03:15:01,78,196,-30,27,979
09/09/98,03:20:01,78,196,-30,27,979
09/09/98,03:25:01,45,196,-30,27,979
09/09/98,03:30:01,57,196,-30,27,979
09/09/98,03:35:01,68,186,-30,27,979
09/09/98,03:40:01,55,186,-30,27,979
09/09/98,03:45:01,55,186,-30,27,979
09/09/98,03:50:01,41,186,-30,27,979
09/09/98,03:55:01,40,186,-30,27,979
09/09/98,04:00:01,60,186,-30,27,979
09/09/98,04:05:01,60,196,-30,29,979
09/09/98,04:10:01,16,186,-30,29,979
09/09/98,04:15:01,17,186,-30,31,979
09/09/98,04:20:01,17,186,-30,31,979
09/09/98,04:25:01,14,186,-30,31,979
09/09/98,04:30:01,24,186,-30,29,979
09/09/98,04:35:01,11,186,-30,27,979
09/09/98,04:40:01,11,186,-29,25,979
09/09/98,04:45:01,1,186,-30,23,979
09/09/98,04:50:01,1,186,-30,21,979
09/09/98,04:55:01,1,176,-30,19,979
09/09/98,05:00:01,1,176,-30,15,979
09/09/98,05:05:01,1,176,-30,13,979
09/09/98,05:10:01,1,176,-30,11,979
09/09/98,05:15:01,1,176,-30,9,979
09/09/98,05:20:01,1,176,-30,9,979
09/09/98,05:25:01,13,176,-30,7,979
09/09/98,05:30:01,10,176,-30,5,979
09/09/98,05:35:01,10,176,-30,3,979
09/09/98,05:40:01,33,166,-30,3,979
09/09/98,05:45:01,33,166,-31,3,979
09/09/98,05:50:01,23,156,-31,3,979
09/09/98,05:55:01,12,146,-31,1,979
09/09/98,06:00:01,12,146,-31,1,979
09/09/98,06:05:01,14,146,-31,1,979
09/09/98,06:10:01,14,146,-31,1,979
09/09/98,06:15:01,12,158,-31,1,979
09/09/98,06:20:01,12,158,-31,1,979
09/09/98,06:25:01,12,158,-31,1,979
09/09/98,06:30:01,12,147,-32,1,979
09/09/98,06:35:01,12,147,-32,1,979
09/09/98,06:40:01,2,147,-32,1,979
09/09/98,06:45:01,2,147,-32,1,979
09/09/98,06:50:01,2,33,-32,1,979
09/09/98,06:55:01,2,139,-32,1,979
09/09/98,07:00:01,2,102,-32,1,979
09/09/98,07:05:01,2,102,-32,1,979
09/09/98,07:10:01,13,33,-32,1,979
09/09/98,07:15:01,24,11,-32,1,979
09/09/98,07:20:01,36,11,-32,1,979
09/09/98,07:25:01,15,2,-32,1,979
09/09/98,07:30:01,32,1,-32,1,979
09/09/98,07:35:01,17,25,-32,1,979
09/09/98,07:40:01,2,22,-32,1,979
09/09/98,07:45:01,9,347,-32,1,979
09/09/98,07:50:01,23,357,-32,1,979
09/09/98,07:55:01,29,344,-32,1,979
09/09/98,08:00:01,9,354,-32,1,979
09/09/98,08:05:01,9,343,-32,1,979
09/09/98,08:10:01,9,323,-32,1,979
09/09/98,08:15:01,9,284,-32,1,979
09/09/98,08:20:01,9,301,-32,1,979
09/09/98,08:25:01,9,328,-32,1,979
09/09/98,08:30:01,9,328,-32,1,979
09/09/98,08:35:01,9,342,-32,1,979
09/09/98,08:40:01,20,342,-32,1,979
09/09/98,08:45:01,8,342,-32,1,979
09/09/98,08:50:01,8,342,-31,1,979
09/09/98,08:55:01,8,247,-31,1,979
09/09/98,09:00:01,5,197,-31,1,979
09/09/98,09:05:01,17,197,-31,1,979
09/09/98,09:10:01,11,172,-31,1,979
09/09/98,09:15:01,18,172,-31,1,979
09/09/98,09:20:01,4,172,-31,1,979
09/09/98,09:25:01,15,183,-31,1,979
09/09/98,09:30:01,10,183,-31,1,979
09/09/98,09:35:01,10,183,-31,1,979
09/09/98,09:40:01,20,183,-31,1,979
09/09/98,09:45:01,14,183,-32,1,979
09/09/98,09:50:01,16,195,-32,1,979
09/09/98,09:55:01,17,207,-32,1,979
09/09/98,10:00:01,7,207,-32,1,979
09/09/98,10:05:01,7,207,-32,1,979
09/09/98,10:10:01,7,207,-32,1,979
09/09/98,10:15:01,7,218,-32,1,979
09/09/98,10:20:01,7,341,-32,1,979
09/09/98,10:25:01,7,341,-32,1,979
09/09/98,10:30:01,0,1,-32,1,979
09/09/98,10:35:01,0,14,-32,1,979
09/09/98,10:40:01,0,121,-32,1,979
09/09/98,10:45:01,14,125,-32,1,979
09/09/98,10:50:01,13,125,-32,1,979
09/09/98,10:55:01,30,136,-32,1,977
09/09/98,11:00:01,19,136,-32,1,977
09/09/98,11:05:01,19,146,-32,1,977
09/09/98,11:10:01,20,146,-32,1,977
09/09/98,11:15:01,20,146,-32,1,977
09/09/98,11:20:01,0,127,-33,1,977
09/09/98,11:25:01,7,40,-33,1,977
09/09/98,11:30:01,30,24,-33,1,977
09/09/98,11:35:01,9,139,-33,1,977
09/09/98,11:40:01,33,139,-33,1,977
09/09/98,11:45:01,34,149,-33,1,977
09/09/98,11:50:01,24,135,-33,1,977
09/09/98,11:55:01,24,113,-33,1,977
09/09/98,12:00:01,24,113,-33,1,977
09/09/98,12:05:01,20,113,-33,1,977
09/09/98,12:10:01,4,32,-33,1,977
09/09/98,12:15:01,4,59,-33,1,977
09/09/98,12:20:01,3,136,-33,1,977
09/09/98,12:25:01,3,57,-33,1,977
09/09/98,12:30:01,42,16,-33,1,977
09/09/98,12:35:01,38,16,-33,1,977
09/09/98,12:40:01,36,16,-33,1,977
09/09/98,12:45:01,25,28,-33,1,977
09/09/98,12:50:01,23,23,-33,1,977
09/09/98,12:55:01,27,6,-33,1,977
09/09/98,13:00:01,34,16,-33,1,977
09/09/98,13:05:01,36,37,-33,1,977
09/09/98,13:10:01,15,37,-33,1,977
09/09/98,13:15:01,37,20,-33,1,977
09/09/98,13:20:01,34,19,-33,1,977
09/09/98,13:25:01,6,27,-33,1,977
09/09/98,13:30:01,21,17,-33,1,977
09/09/98,13:35:01,4,17,-33,1,977
09/09/98,13:40:01,4,17,-33,1,977
09/09/98,13:45:01,16,17,-33,1,977
09/09/98,13:50:01,2,17,-33,1,977
09/09/98,13:55:01,13,17,-33,1,977
09/09/98,14:00:01,5,17,-33,1,977
09/09/98,14:05:01,34,17,-33,1,977
09/09/98,14:10:01,0,17,-34,1,977
09/09/98,14:15:01,1,17,-34,1,977
09/09/98,14:20:01,5,17,-34,1,977
09/09/98,14:25:01,9,17,-34,1,977
09/09/98,14:30:01,9,17,-34,1,977
09/09/98,14:35:01,9,17,-34,1,977
09/09/98,14:40:01,5,32,-34,1,977
09/09/98,14:45:01,5,329,-34,1,977
09/09/98,14:50:01,19,199,-34,1,977
09/09/98,14:55:01,5,199,-34,1,977
09/09/98,15:00:01,5,199,-34,1,977
09/09/98,15:05:01,5,188,-34,1,977
09/09/98,15:10:01,5,176,-34,1,977
09/09/98,15:15:01,5,176,-34,1,977
09/09/98,15:20:01,5,176,-34,1,977
09/09/98,15:25:01,5,176,-34,1,977
09/09/98,15:30:01,5,176,-34,1,977
09/09/98,15:35:01,25,176,-34,1,977
09/09/98,15:40:01,14,176,-34,1,977
09/09/98,15:45:01,4,176,-34,1,977
09/09/98,15:50:01,4,176,-34,1,977
09/09/98,15:55:01,6,176,-34,1,977
09/09/98,16:00:01,6,137,-34,1,977
09/09/98,16:05:01,6,137,-34,1,977
09/09/98,16:10:01,0,29,-34,1,977
09/09/98,16:15:01,1,29,-34,1,977
09/09/98,16:20:01,1,29,-34,1,977
09/09/98,16:25:01,4,29,-34,1,977
09/09/98,16:30:01,4,48,-34,1,977
09/09/98,16:35:01,0,16,-34,1,977
09/09/98,16:40:01,15,17,-34,1,977
09/09/98,16:45:01,16,27,-34,1,977
09/09/98,16:50:01,38,27,-34,1,977
09/09/98,16:55:01,30,6,-34,1,977
09/09/98,17:00:01,62,20,-34,1,977
09/09/98,17:05:01,74,20,-34,1,977
09/09/98,17:10:01,58,18,-34,1,977
09/09/98,17:15:01,50,16,-34,1,977
09/09/98,17:20:01,34,16,-34,1,977
09/09/98,17:25:01,30,16,-34,1,977
09/09/98,17:30:01,41,16,-34,1,977
09/09/98,17:35:01,3,43,-34,1,977
09/09/98,17:40:01,23,29,-34,1,977
09/09/98,17:45:01,15,19,-34,1,977
09/09/98,17:50:01,19,21,-34,1,977
09/09/98,17:55:01,4,21,-34,1,977
09/09/98,18:00:01,52,33,-34,1,977
09/09/98,18:05:01,41,33,-34,1,977
09/09/98,18:10:01,17,6,-34,1,977
09/09/98,18:15:01,12,30,-34,1,977
09/09/98,18:20:01,27,30,-34,1,977
09/09/98,18:25:01,9,30,-34,1,977
09/09/98,18:30:01,9,124,-34,1,977
09/09/98,18:35:01,9,134,-34,1,977
09/09/98,18:40:01,9,91,-34,1,977
09/09/98,18:45:01,9,91,-34,1,977
09/09/98,18:50:01,19,153,-34,1,977
09/09/98,18:55:01,30,153,-34,1,977
09/09/98,19:00:01,30,153,-34,1,977
09/09/98,19:05:01,50,153,-33,1,977
09/09/98,19:10:01,50,153,-33,1,977
09/09/98,19:15:01,29,153,-33,1,977
09/09/98,19:20:01,49,163,-33,1,977
09/09/98,19:25:01,39,163,-33,1,977
09/09/98,19:30:01,49,163,-33,1,977
09/09/98,19:35:01,59,163,-33,1,977
09/09/98,19:40:01,58,163,-33,1,977
09/09/98,19:45:01,58,163,-33,1,977
09/09/98,19:50:01,48,163,-33,1,977
09/09/98,19:55:01,48,163,-33,1,977
09/09/98,20:00:01,37,163,-33,1,977
09/09/98,20:05:01,37,163,-33,1,977
09/09/98,20:10:01,37,163,-33,1,977
09/09/98,20:15:01,26,163,-33,1,977
09/09/98,20:20:01,26,163,-33,3,977
09/09/98,20:25:01,12,163,-33,3,977
09/09/98,20:30:01,23,163,-33,3,977
09/09/98,20:35:01,23,163,-33,5,977
09/09/98,20:40:01,13,163,-33,5,977
09/09/98,20:45:01,3,163,-33,7,977
09/09/98,20:50:01,3,163,-33,9,977
09/09/98,20:55:01,4,163,-33,11,977
09/09/98,21:00:01,4,163,-33,11,977
09/09/98,21:05:01,4,163,-33,15,977
09/09/98,21:10:01,4,163,-33,21,977
09/09/98,21:15:01,4,163,-33,23,977
09/09/98,21:20:01,24,163,-33,27,977
09/09/98,21:25:01,14,163,-33,31,977
09/09/98,21:30:01,4,163,-33,32,977
09/09/98,21:35:01,4,163,-33,26,977
09/09/98,21:40:01,4,163,-32,26,977
09/09/98,21:45:01,4,163,-32,28,977
09/09/98,21:50:01,4,163,-32,28,977
09/09/98,21:55:01,14,163,-32,32,977
09/09/98,22:00:01,4,163,-32,36,977
09/09/98,22:05:01,4,163,-32,38,977
09/09/98,22:10:01,14,163,-32,40,977
09/09/98,22:15:01,16,163,-32,36,977
09/09/98,22:20:01,5,163,-32,36,977
09/09/98,22:25:01,5,163,-32,38,977
09/09/98,22:30:01,5,163,-32,42,977
09/09/98,22:35:01,2,163,-32,57,977
09/09/98,22:40:01,12,153,-32,63,977
09/09/98,22:45:01,12,153,-32,69,977
09/09/98,22:50:01,2,153,-32,67,977
09/09/98,22:55:01,13,163,-32,59,977
09/09/98,23:00:01,2,163,-32,55,977
09/09/98,23:05:01,13,163,-32,59,977
09/09/98,23:10:01,13,163,-32,76,977
09/09/98,23:15:01,13,163,-32,76,977
09/09/98,23:20:01,13,163,-32,80,977
09/09/98,23:25:01,23,163,-32,74,977
09/09/98,23:30:01,20,173,-31,72,977
09/09/98,23:35:01,20,173,-31,80,977
09/09/98,23:40:01,6,173,-31,84,977
09/09/98,23:45:01,17,173,-31,86,977
09/09/98,23:50:01,21,173,-31,78,977
09/09/98,23:55:01,10,173,-31,72,977
09/10/98,00:00:01,21,152,-31,70,977
